Regional Weather Roundup
Issued by NWS Sterling, VA

Home | Current Version | Previous Version | Graphics & Text | Print | Product List | Glossary On
Versions: 1 2 3 4 5 6 7 8 9 10 11 12 13 14 15 16 17 18 19 20 21 22 23 24 25 26 27 28 29 30 31 32 33 34 35 36 37 38 39 40 41 42 43 44 45 46 47 48 49 50
888
ASUS41 KLWX 220111
RWRLWX

REGIONAL WEATHER ROUNDUP
NATIONAL WEATHER SERVICE BALTIMORE MD/WASHINGTON DC
800 PM EST WED FEB 21 2018

Note: "FAIR" indicates few or no clouds below 12,000 feet
with no significant weather and/or obstructions to visibility.
 TC=TEMPERATURE CELSIUS

 * =Non NWS site. Station does not report precipitation (e.g. rain,
    snow, etc.), thunder, or fog.

DCZ001-MDZ009-015-VAZ040>042-051-053>054-220200-
WASHINGTON METRO

CITY           SKY/WX    TMP DP  RH WIND       PRES   REMARKS
WASHINGTON NAT MOCLDY    69  59  70 S10       30.31R
DULLES         LGT RAIN  71  64  78 SW17      30.31R
ANDREWS AFB    FAIR      72  59  63 SW13      30.31R
FT BELVOIR     FAIR      73  59  61 CALM      30.32R
QUANTICO       FAIR      59  54  83 SW9       30.34R
COLLEGE PARK*  FAIR      74  60  59 CALM      30.31R
LEESBURG*      CLOUDY    73  64  73 NW9G17    30.34R
MANASSAS*      LGT RAIN  72  64  76 W7G18     30.34R
GAITHERSBURG*  CLOUDY    73  61  65 NW9       30.34R

$$

MDZ006>007-011-014-220200-
BALTIMORE METRO

CITY           SKY/WX    TMP DP  RH WIND       PRES   REMARKS
BWI AIRPORT    MOCLDY    74  61  63 SW7       30.30R
MD SCIENCE CTR   N/A     77  61  57 MISG      30.30R
MARTIN STATE   MOCLDY    61  55  82 CALM      30.31R
ANNAPOLIS      FAIR      55  52  89 SE6       30.30R
FORT MEADE*    FAIR      73  59  60 SW8       30.33R

$$

MDZ012-015-019>023-220200-
MARYLAND EASTERN SHORE

CITY           SKY/WX    TMP DP  RH WIND       PRES   REMARKS
OCEAN CITY     FAIR      58  56  93 S8        30.36S
SALISBURY      FAIR      67  61  81 SW9       30.35R
BAY BRIDGE AP* FAIR      64  57  77 S8        30.31R
CAMBRIDGE*     CLOUDY    68  61  77 S7        30.34R
EASTON*        CLEAR     72  61  68 SW12      30.36R

$$

MDZ017>025-220200-
SOUTHERN MARYLAND

CITY           SKY/WX    TMP DP  RH WIND       PRES   REMARKS
PATUXENT RIVER FAIR      70  62  76 SW13      30.34R
ST INIGOES     FAIR      70  61  73 S12       30.34R
LEONARDTOWN*   FAIR      70  61  73 SW9       30.36R

$$

MDZ003>005-220200-
NORTH CENTRAL MARYLAND

CITY           SKY/WX    TMP DP  RH WIND       PRES   REMARKS
FREDERICK*     CLOUDY    70  70 100 SW8       30.35R
HAGERSTOWN APT CLOUDY    66  56  70 N9        30.33S
WESTMINSTER*   CLOUDY    68  66  94 W10       30.34R

$$

MDZ501>502-220200-
WESTERN MARYLAND

CITY           SKY/WX    TMP DP  RH WIND       PRES   REMARKS
OAKLAND*       MOCLDY    48  48 100 NW3       30.41S
CUMBERLAND*    MOCLDY    63  52  67 N7        30.42R

$$

VAZ025>031-220200-
SHENANDOAH VALLEY

CITY           SKY/WX    TMP DP  RH WIND       PRES   REMARKS
WINCHESTER*    CLOUDY    66  59  77 N6        30.37R
FRONT ROYAL*   CLOUDY    70  61  73 SW5       30.34R
LURAY*         FAIR      63  61  94 S3        30.35S
NEW MARKET*    CLOUDY    64  60  89 SW5       30.34R
STAUNTON*      FOG       60  60  98 CALM      30.38R VSB 3/4
WAYNESBORO*    FAIR      67  60  78 N5        30.38R

$$

WVZ021-048>050-054>055-220200-
EASTERN WEST VIRGINIA PANHANDLE

CITY           SKY/WX    TMP DP  RH WIND       PRES   REMARKS
MARTINSBURG    CLOUDY    66  55  67 N12       30.33R
PETERSBURG*    CLOUDY    64  57  77 N5        30.38R

$$

VAZ036>039-050-220200-
CENTRAL FOOTHILLS

CITY           SKY/WX    TMP DP  RH WIND       PRES   REMARKS
CHARLOTTESVILL MOCLDY    75  61  61 SW7       30.34R
CULPEPER*      CLOUDY    74  60  61 CALM      30.35S
ORANGE*        FAIR      70  59  68 CALM      30.34S
GORDONSVILLE*  FAIR      69  62  79 SW3       30.33S
WARRENTON*     CLOUDY    74  58  57 W5        30.34R

$$

VAZ055>057-220200-
NORTH AND CENTRAL PIEDMONT

CITY           SKY/WX    TMP DP  RH WIND       PRES   REMARKS
FREDERICKSBRG* FAIR      74  63  66 S9        30.33S
STAFFORD*      FAIR      74  61  64 S3        30.38R

$$

NCZ024-NYZ072-PAZ021-071-VAZ022-071-220200-
OTHER REGIONAL OBSERVATIONS

CITY           SKY/WX    TMP DP  RH WIND       PRES   REMARKS
NEW YORK CITY  CLOUDY    69  54  58 VRB7G18   30.33R
PHILADELPHIA   FAIR      68  59  73 VRB6      30.30R
PITTSBURGH     CLOUDY    44  38  79 N10       30.48R
ROANOKE        FAIR      68  60  75 VRB3      30.39R
RICHMOND       FAIR      67  62  84 S8        30.37R
RALEIGH        FAIR      66  61  84 SE5       30.40S

$$

ANZ530>537-220200-
MARINE OBSERVATIONS

STATION/POSITION TIME  TEMP    WIND        PRES
                       AIR SEA DIR/SP/G
                 (UTC) (F)     (DEG/KT/KT) (MB)
THOMAS PT LIGHT  0000   61 41  190/ 19/ 19   N/A
BALT KEY BRIDGE  0036           90/  5/  5 1025.8R
COVE POINT       0036   60     190/  9/ 10 1027.6R
LEWISETTA        0036   70 50  230/ 11/ 14 1027.6R
SOLOMONS ISLAND  0036   67 43  210/ 12/ 16 1026.8R
PINEY POINT      0048          220/  5/  6   N/A

$$





USA.gov is the U.S. government's official web portal to all federal, state and local government web resources and services.